FENGYUN 1C DEB, 35168

Orbit data source: Space-Track

FENGYUN 1C DEB, 35168 is space debris in SSO originally from a launch on Mon, 10 May 1999 UTC launched from the Taiyaun Space Center, China (TSC). Fengyun 1C debris stems from the Chinese weather satellite Fengyun-1C, which was intentionally destroyed by a Chinese anti-satellite missile in 2007. This event dramatically increased the amount of space debris, with thousands of trackable fragments posing hazards to satellites and human spaceflight. The Fengyun 1C debris cloud has become a focal point in discussions about space sustainability and the need for international regulations to prevent the creation of new debris.

Loading next visibility...
Identifier
35168, 1999-025DMY
Orbit
SSO
Country
Flag of CNCN / PRC
Related business
Manufacturer
Unknown
Mission
Spacecraft
Bus & Motor
Unknown
Mass
Unknown
Launch date (UTC)
1999-05-10 (27 years ago)
Launch vehicle
Unknown
Launch site
Taiyaun Space Center, China (TSC)
Object type
Payload
Rocket body
Debris
Shape & HBR
Unknown shape, 0.1 m
Radar Cross Section
Small (<0.1 m²)

Expand to show TLE details & history
Last TLE update: 6 days ago

TLE from 6 days ago
0 FENGYUN 1C DEB
1 35168U 99025DMY 26164.89784214  .00000356  00000-0  18735-3 0  9991
2 35168  98.2558  48.6146 0124207 317.8989  41.2695 14.15736898605158
Epoch: 2026-06-13T21:32Z
TLE epoch observation values (Epoch: 2026-06-13T21:32:53.560Z)
Latitude
-0.00001°
Longitude
-176.8149°
Altitude
775.824 km
Speed
7.501 km/s
True Right ascension
03h 14m 27s
True Declination
0° 00' 00"
Sunlit
Object was in daylight at epoch
Visualization orbit readout
Latitude
Unknown
Longitude
Unknown
Altitude
Unknown
Speed
Unknown
Apparent Right ascension
Unknown
Apparent Declination
Unknown
Sunlit
N/A
Visualization observer readout
Local Sidereal Time
08:46:18
Azimuth
Unknown
Elevation
Unknown
Doppler factor
Unknown
Orbital elements
Apogee altitude
926.565 km
Perigee altitude
747.333 km
Semi-major axis
7,215.086 km
Eccentricity
0.01242
Inclination
98.2558°
RAAN
48.6146°
Arg. of periapsis
317.8989°
True anomaly
42.21935°
Mean anomaly
41.2695°
Eccentric anomaly
41.74332°
Mean motion
3.54145 °/min
Orbital period
101.65 mins
BSTAR
0.00018735
Loading maneuver chart data...
Computing Atmospheric mass density...

Documentation

Showing up to 5 results
|